Showing default

MINXSS-2, 43758

Orbit data source: Space-Track

MINXSS-2, 43758 is a payload satellite owned by CU-LASP (US) in SSO that was launched on Mon, 03 Dec 2018 UTC via an FALCON 9 launch vehicle from the Air Force Western Test Range (AFWTR). Payload-class satellites include a variety of spacecraft equipped with specific instruments for various scientific and technological missions. These include communications satellites like Starlink; space stations such as the ISS; scientific satellites like the Hubble; Earth observation satellites from companies like Planet Labs, Umbra, and HawkEye 360; GPS; miniature CubeSats for education and research; and military/defense satellites.

Loading next visibility...
Identifier
43758, 2018-099A
Orbit
SSO
Last TLE update
10 hours ago
Origin
Manufacturer
CU-LASP
Mission
Operational Amateur Astronomy
Bus & Motor
CUBESAT 3U, Unknown motor
Mass
3.52 kg wet, 3.52 kg dry
Launch date (UTC)
2018-12-03 (7 years ago)
Launch vehicle
FALCON 9
Launch site
Air Force Western Test Range (AFWTR)
Object type
Payload
Rocket body
Debris
Shape & HBR
Box + 2 Pan + 1 Ant, 0.8 m
Radar Cross Section
0.075 m², Medium (>0.1 m² and < 1m²)

Expand to show TLE details & history

TLE from 10 hours ago
0 MINXSS-2
1 43758U 18099A   25186.49266860  .00013475  00000-0  51923-3 0  9990
2 43758  97.5010 252.6214 0012810  70.1331 290.1286 15.26385443360929
Epoch: 2025-07-05T11:49Z
TLE epoch observation values (Epoch: 2025-07-05T11:49:26.567Z)
Latitude
-0.00006°
Longitude
151.53078°
Altitude
486.708 km
Speed
7.623 km/s
True Right ascension
16h 50m 29s
True Declination
0° 00' 00"
Sunlit
Object was in full shadow at epoch
Visualization orbit readout
Latitude
-53.63588°
Longitude
-38.27585°
Altitude
515.977 km
Speed
7.599 km/s
Apparent Right ascension
00h 52m 03s
Apparent Declination
-56° 15' 07"
Sunlit
Object is in daylight
Visualization observer readout
Local Sidereal Time
10:13:18
Azimuth
224.31° SW
Elevation
-59.477°
Doppler factor
1
Orbital elements
Apogee altitude
492.38 km
Perigee altitude
474.8 km
Semi-major axis
6,861.727 km
Eccentricity
0.00128
Inclination
97.501°
RAAN
252.6214°
Arg. of periapsis
70.1331°
True anomaly
Unknown
Mean anomaly
290.1286°
Eccentric anomaly
Unknown
Mean motion
3.8185 °/min
Orbital period
94.28 mins
BSTAR
0.00051923
Loading maneuver chart data...
Loading SW <> Apogee altitude chart data...
Loading historical data...
Loading historical data...
Loading historical data...
Loading historical data...
Loading historical data...
Loading historical data...
Loading historical data...

MINXSS-2 Visibility forecast

Observer location: undefined°, undefined°

Span
Click to sort rows by Start time (UTC) header in descending order
Start Az.
Max El. time (UTC)
Max El. Az.
Max El.
End time (UTC)
End Az.
5 mins2025-07-06 03:42:08.692Z118.042° SE2025-07-06 03:44:08.692Z82.058° E19.526°2025-07-06 03:47:08.692Z21.308° NNE
4 mins2025-07-06 16:44:08.692Z59.989° ENE2025-07-06 16:45:08.692Z86.551° E24.879°2025-07-06 16:48:08.692Z154.023° SSE
|